West Memphis, AR

1:02 PM CDT on June 26, 2017 (GMT -0500)
West Memphis Municipal

Weather History for KAWM - February, 2014

Change the Weather History Date:

Wednesday, February 26, 2014

  Actual Average Record
Temperature  
Mean Temperature 28 °F -  
Max Temperature 33 °F 56 °F 76 °F (1986)
Min Temperature 23 °F 36 °F 19 °F (1980)
Degree Days  
Heating Degree Days 37    
Moisture  
Dew Point 15 °F    
Average Humidity 58    
Maximum Humidity 81    
Minimum Humidity 38    
Precipitation  
Precipitation 0.00 in - - ()
Sea Level Pressure  
Sea Level Pressure 30.18 in    
Wind  
Wind Speed 15 mph (North)    
Max Wind Speed 23 mph    
Max Gust Speed 36 mph    
Visibility 10 miles    
Events      
Averages and records for this station are not official NWS values.
T = Trace of Precipitation, MM = Missing Value Source: NWS Daily Summary

Daily Weather History Graph

Daily Weather History Graph

Search for Another Location

Airport or City:

Trip Planner

Search our weather history database for the weather conditions in past years. The results will help you decide how hot, cold, wet, or windy it might be!

Date:

Astronomy

Feb. 26, 2014 Rise Set
Actual Time 6:34 AM CST 5:53 PM CST
Civil Twilight 6:08 AM CST 6:19 PM CST
Nautical Twilight 5:39 AM CST 6:48 PM CST
Astronomical Twilight 5:09 AM CST 7:18 PM CST
Moon 4:15 AM CST 3:12 PM CST
Length of Visible Light 12h 10m
Length of Day
11h 19m
Waning Crescent, 10% of the Moon is Illuminated
Feb 26
Waning Crescent
Mar 1
New
Mar 8
First Quarter
Mar 16
Full
Mar 23
Last Quarter

Hourly Weather History & Observations

Time (CST) Temp. Windchill Dew Point Humidity Pressure Visibility Wind Dir Wind Speed Gust Speed Precip Events Conditions
12:53 AM 33.1 °F 21.2 °F 23.0 °F 66% 30.18 in 10.0 mi North 20.7 mph 26.5 mph N/A   Mostly Cloudy
1:53 AM 30.9 °F 17.8 °F 21.0 °F 67% 30.21 in 10.0 mi NNE 23.0 mph 29.9 mph N/A   Overcast
2:53 AM 30.0 °F 17.5 °F 19.9 °F 66% 30.23 in 10.0 mi NNE 19.6 mph 35.7 mph N/A   Overcast
3:53 AM 28.9 °F 16.9 °F 21.0 °F 72% 30.23 in 10.0 mi NNE 17.3 mph 31.1 mph N/A   Overcast
4:53 AM 28.0 °F 14.6 °F 19.0 °F 69% 30.24 in 10.0 mi North 20.7 mph 31.1 mph N/A   Overcast
5:53 AM 27.0 °F 15.2 °F 17.1 °F 66% 30.24 in 10.0 mi NNE 15.0 mph 25.3 mph N/A   Clear
6:41 AM 26.6 °F 13.8 °F 17.6 °F 69% 30.24 in 10.0 mi North 17.3 mph 25.3 mph N/A   Mostly Cloudy
6:53 AM 26.1 °F 13.6 °F 17.1 °F 69% 30.25 in 10.0 mi North 16.1 mph 20.7 mph N/A   Mostly Cloudy
7:53 AM 27.0 °F 14.3 °F 16.0 °F 63% 30.26 in 10.0 mi NNE 17.3 mph 26.5 mph N/A   Mostly Cloudy
10:53 AM 28.9 °F 16.9 °F 10.9 °F 47% 30.27 in 10.0 mi North 17.3 mph 24.2 mph N/A   Clear
11:53 AM 30.9 °F 19.4 °F 10.9 °F 43% 30.24 in 10.0 mi NNE 17.3 mph 25.3 mph N/A   Clear
12:53 PM 32.0 °F 21.6 °F 10.9 °F 42% 30.20 in 10.0 mi NNE 15.0 mph - N/A   Clear
1:53 PM 33.1 °F 23.0 °F 12.9 °F 43% 30.18 in 10.0 mi North 15.0 mph 24.2 mph N/A   Clear
2:53 PM 33.1 °F 23.9 °F 10.0 °F 38% 30.16 in 10.0 mi North 12.7 mph 21.9 mph N/A   Clear
3:53 PM 33.1 °F 24.4 °F 10.0 °F 38% 30.14 in 10.0 mi North 11.5 mph - N/A   Clear
4:53 PM 32.0 °F 26.4 °F 9.0 °F 38% 30.12 in 10.0 mi North 5.8 mph - N/A   Clear
5:53 PM 28.9 °F 23.9 °F 10.0 °F 45% 30.11 in 10.0 mi North 4.6 mph - N/A   Clear
6:53 PM 28.0 °F - 10.0 °F 47% 30.12 in 10.0 mi Calm Calm - N/A   Clear
7:53 PM 26.1 °F - 16.0 °F 66% 30.12 in 10.0 mi Calm Calm - N/A   Clear
8:53 PM 23.0 °F - 18.0 °F 81% 30.12 in 10.0 mi Calm Calm - N/A   Clear
9:53 PM 23.0 °F - 16.0 °F 74% 30.11 in 10.0 mi Calm Calm - N/A   Clear
10:53 PM 26.1 °F 21.9 °F 12.9 °F 58% 30.11 in 10.0 mi SW 3.5 mph - N/A   Clear
11:53 PM 25.0 °F 20.7 °F 14.0 °F 63% 30.10 in 10.0 mi SW 3.5 mph - N/A   Clear